COSMOS 1321

导读 | 豆包AI

COSMOS 1321(宇宙1321)是由独联体(CIS)发射的人造卫星,于1981年11月28日08:00成功进入太空,属于苏联/俄罗斯“宇宙”系列卫星家族。该系列卫星承担多样空间任务,涵盖科学试验、技术验证或军事应用等方向,推动了航天技术发展,是冷战时期苏联航天活动的重要组成,为后续空间探索积累了关键数据。

基本信息
目录编号:
12976
目录名称:
COSMOS 1321
国际标识:
1981-116B
轨道中心:
EARTH
卫星名称:
COSMOS 1321
卫星全名:
--
卫星状态:
在轨 (已飞行16175 天)
发射日期:
1981-11-28 UTC
国别 :
俄罗斯(独联体) (CIS)
星等 :
--
轨道信息
数据来源 国际轨道数据
星历时间: 2026-03-12T08:16:14+0800
11小时前
查看轨道信息
半长轴: 7934.31km
偏心率: 0.0093805
轨道倾角: 73.984°
近地点辐角 43.575°
升交点赤经 170.369°
平近点角 128.772°
近地点: 1481.745km
远地点: 1630.601km
周期: 117.226分钟
每日圈数: 12.283978
详细信息
使用方式:
暂无
2D轨道图
3D轨道图
轨道高度分析图
轨道倾角分析图
轨道综合分析图
查看轨道综合分析图